STARLINK-1497 (45781 NORAD) Tracking and Keplerian Element Data

This shows tracking and keplerian element data for the satellite.

Feedback or suggestion? Click here.




ElementValue
Catalog45781
NameSTARLINK-1497
Epoch Orbit444
Epoch Day186.50001157
Epoch Year2020
RAAN192.6563
Inclination52.9998
Eccentricity0.0001309
Argument of Perigee81.2166
Mean Anonmoly151.1909
Mean Motion15.62747857
Decay Rate-0.00050072
L11 45781U 20038BD 20186.50001157 -.00050072 00000-0 -54447-3 0 9997
L22 45781 52.9998 192.6563 0001309 81.2166 151.1909 15.62747857 4448

Live tracking and technical data element details for STARLINK-1497 (NORAD 45781). STARLINK-1497 can be tracked NOW for your location showing map with azimuth and elevation plus other details from your city location.

Track the satellite on the map from your city or location and see movement details for azimuth, elevation, latitude, longitude, range, height, and movement on the map or in text.







IsCatalogInMostPopularTable: catalog: 45781, numindb: 7
Update: records affected: 1



GetName: 45781 STARLINK-1497

Hit Count: updated at: Sun, 05 Jul 2020 15:48:59 GMT